Location: Marcé
(47.5801°N, 0.3280°W)
Time: 03:41:59
(UTC+01:00)

Vanguard 1 Rocket - Pass Details

Date: 02 December 2021
Orbit: 651 x 4225 km, 34.3° (Epoch: 26 January)

Event Time Altitude Azimuth Distance (km) Brightness Sun altitude
Exits shadow 04:47:50 38° 205° (SSW) 3,375 9.9 -36.6°
Maximum altitude 04:53:03 49° 163° (SSE) 3,476 10.2 -35.7°
Drops below altitude 10° 05:14:12 10° 98° (E) 7,211 12.8 -32.1°
Sets 05:20:38 0° 94° (E) 8,427 13.5 -31.1°
